Location: Holyhead Bay
(53.3667°N, 4.6667°W)
Time: 22:16:42
(UTC+00:00)

Cosmos 1408 Rocket - Pass Details

Date: 18 April 2021
Orbit: 601 x 631 km, 82.6° (Epoch: 16 May)

Event Time Altitude Azimuth Distance (km) Brightness Sun altitude
Rises 23:36:52 0° 336° (NNW) 2,866 8.3 -24.9°
Reaches altitude 10° 23:39:42 10° 317° (NW) 1,958 6.9 -24.9°
Maximum altitude 23:42:30 17° 276° (W) 1,539 5.7 -25.0°
Enters shadow 23:43:14 17° 264° (W) 1,570 5.6 -25.0°
